Погода в Сагунах

Россия / Воронежская область     50°35′58″N   39°36′41″E
темп.,
°C
ветер,
м/с
пор.,
м/с
влажн.,
%
обл.,
%
осадки,
мм/ч
давл.,
гПа
погр.,
м
14 апреля, ср
ср1400:00+11ююв1189100 0.0 102210
03:00+11ссв2288100 0.0 102116
06:00+9в366594 0.0 101994
09:00+14вюв584355 0.0 1019441
12:00+19юв6826100 0.0 10171362
15:00+18ююз4734100 0.0 10161356
18:00+18вюв51038100 0.0 1016407
21:00+15юв51145100 0.0 1016386
15 апреля, чт
чт1500:00+12юв3756100 0.0 1015174
03:00+12юв2365100 0.1 101466
06:00+9ююз248299 0.0 101595
09:00+13юз446656 0.0 1016586
12:00+16ююз454816 0.0 10151599
15:00+18ююз453820 0.0 10142063
18:00+17юз344693 0.0 1014645
21:00+14юз3554100 0.0 1015167
16 апреля, пт
пт1600:00+12юз377491 0.0 1015301
03:00+11ююз247541 0.1 1015177
06:00+9ю228576 0.0 101676
09:00+13ю347099 0.0 1017619
12:00+16ю57499 0.1 10161723
15:00+17ю673568 0.3 10162590
18:00+16ю353943 0.0 1016302
21:00+10зсз3667100 0.0 1017134
17 апреля, сб
сб1700:00+11з4766100 0.0 1018296
03:00+8юз6987100 0.1 1018657
06:00+7зюз4692100 3.6 1018611
09:00+8зсз3579100 8.9 1018628
12:00+9ю2378100 0.2 1019570
15:00+12ююв346399 1.1 10191119
18:00+11ю236799 2.1 1019514
21:00+8зсз11794 3.2 102010
18 апреля, вс
вс1800:00+6ссв23905 0.4 102143
03:00+6всв22892 0.4 102120
06:00+6св118681 0.0 102110
09:00+10св3372100 0.0 1021434
12:00+14в3453100 0.2 10201400
15:00+15всв344898 0.9 10201654
18:00+12св346583 1.9 1020226
21:00+8св61089100 3.1 1021408